SILO ALERT LOG
| Silo ID | Alert Type | Alert Message | Silo Type | Points | Depth (mm) | Strength | Temperature (°C) | Humidity (%) | Height (mm) | Volume (㎥) | Weight (t) | Flag | Time |
|---|---|---|---|---|---|---|---|---|---|---|---|---|---|
| DJHNR01 | Humidity | 습도센서 측정값이 80% 초과 | 호퍼 | 471 | 4315 | 4921 | 6.8 | 97.3 | 11064 | 472.25 | 298.557 | 13 | 2024-01-13 20:39:33.000 |
| DJDJD04 | Humidity | 습도센서 측정값이 80% 초과 | 평 | 277 | 4208 | 4411 | 5.6 | 81 | 3471 | 420.591 | 265.898 | 11 | 2024-01-13 20:39:33.000 |
| DJSSD05 | Temperature | 온도센서 측정값이 0도 미만 | 평 | 846 | 2551 | 4887 | -45.4 | 43.6 | 5528 | 769.392 | 486.41 | 0 | 2024-01-13 20:39:33.000 |
| DJSSD09 | Temperature | 온도센서 측정값이 0도 미만 | 평 | 119 | 2907 | 3265 | -45.4 | 0 | 4772 | 664.243 | 419.935 | 11 | 2024-01-13 20:39:33.000 |
| DJSSD04 | Temperature | 온도센서 상태 이상 | 평 | 0 | 8200 | 0 | -999 | -999 | -120 | -16.702 | 0 | 31 | 2024-01-13 20:39:33.000 |
| DJSSD01 | Humidity | 습도센서 측정값이 80% 초과 | 평 | 794 | 2558 | 4628 | 6.3 | 83.1 | 5521 | 768.539 | 485.87 | 0 | 2024-01-13 20:39:33.000 |
| DJSSD11 | Temperature | 온도센서 측정값이 0도 미만 | 호퍼 | 447 | 7380 | 154 | -2 | 62.7 | 3849 | 29.11 | 15.865 | 11 | 2024-01-13 20:39:32.000 |
| DJSAD08 | Humidity | 습도센서 측정값이 80% 초과 | 평 | 575 | 2346 | 4858 | 8.8 | 83.3 | 5233 | 744.666 | 470.778 | 0 | 2024-01-13 20:39:32.000 |
| DJSAD18 | Humidity | 습도센서 측정값이 80% 초과 | 평 | 119 | 1419 | 5817 | 6.6 | 80.8 | 6160 | 613.422 | 387.806 | 11 | 2024-01-13 20:39:31.000 |
| DJSAD17 | Humidity | 습도센서 측정값이 80% 초과 | 평 | 445 | 3116 | 4934 | 5.6 | 82.2 | 4463 | 444.512 | 281.02 | 0 | 2024-01-13 20:39:31.000 |
| DJHNR14 | Temperature | 온도센서 측정값이 0도 미만 | 호퍼 | 51 | 2806 | 4179 | -1.4 | 72.8 | 7573 | 109.403 | 69.165 | 11 | 2024-01-13 20:39:30.000 |
| DJHNR03 | Temperature | 온도센서 상태 이상 | 호퍼 | 0 | 15500 | 0 | -999 | -999 | -119 | 0 | 0 | 31 | 2024-01-13 20:39:24.000 |
| DJSSD12 | Temperature | 온도센서 상태 이상 | 호퍼 | 0 | 11350 | 0 | -999 | -999 | -120 | 0 | 0 | 31 | 2024-01-13 20:39:24.000 |
| DJSAD02 | Humidity | 습도센서 측정값이 80% 초과 | 평 | 374 | 1135 | 4342 | 3.6 | 83.7 | 7644 | 316.439 | 200.052 | 11 | 2024-01-13 19:39:39.000 |
| DJSAD01 | Humidity | 습도센서 측정값이 80% 초과 | 평 | 464 | 1471 | 7520 | 3 | 82.9 | 7308 | 302.528 | 191.258 | 0 | 2024-01-13 19:39:39.000 |
| DJSAD03 | Humidity | 습도센서 측정값이 80% 초과 | 평 | 436 | 1780 | 6114 | 5.4 | 84.5 | 6999 | 289.75 | 183.18 | 0 | 2024-01-13 19:39:39.000 |
| DJSSD05 | Temperature | 온도센서 측정값이 0도 미만 | 평 | 843 | 2546 | 4881 | -45.4 | 43.6 | 5533 | 770.191 | 486.915 | 0 | 2024-01-13 19:39:33.000 |
| DJHNR01 | Humidity | 습도센서 측정값이 80% 초과 | 호퍼 | 472 | 4315 | 4902 | 7.6 | 96.1 | 11064 | 472.23 | 298.544 | 13 | 2024-01-13 19:39:33.000 |
| DJSSD01 | Humidity | 습도센서 측정값이 80% 초과 | 평 | 787 | 2573 | 4643 | 6.6 | 82.8 | 5506 | 766.328 | 484.472 | 0 | 2024-01-13 19:39:33.000 |
| DJSSD04 | Temperature | 온도센서 상태 이상 | 평 | 0 | 8200 | 0 | -999 | -999 | -120 | -16.702 | 0 | 31 | 2024-01-13 19:39:33.000 |
[첫 페이지] [9959] [9960] [9961] [9962] 9963 [9964] [9965] [9966] [9967] [마지막 페이지]